Time,TemperatureF,DewpointF,PressureIn,WindDirection,WindDirectionDegrees,WindSpeedMPH,WindSpeedGustMPH,Humidity,HourlyPrecipIn,Conditions,Clouds,dailyrainin,SoftwareType,DateUTC
2013-09-29 00:06:00,48.0,47.5,30.10,SE,135,0.0,-999.0,98,-99.99,,,0.00,Acu-Link.com,2013-09-29 04:06:00,
2013-09-29 00:21:00,47.5,47.0,30.09,West,270,0.0,-999.0,98,-99.99,,,0.00,Acu-Link.com,2013-09-29 04:21:00,
2013-09-29 00:37:00,47.1,46.6,30.09,West,270,0.0,-999.0,98,-99.99,,,0.00,Acu-Link.com,2013-09-29 04:37:00,
2013-09-29 00:53:00,47.1,46.6,30.09,SW,225,0.0,-999.0,98,-99.99,,,0.00,Acu-Link.com,2013-09-29 04:53:00,
2013-09-29 01:09:00,46.8,46.3,30.09,ENE,67,0.0,-999.0,98,-99.99,,,0.00,Acu-Link.com,2013-09-29 05:09:00,
2013-09-29 01:24:00,46.2,45.7,30.10,ENE,67,0.0,-999.0,98,-99.99,,,0.00,Acu-Link.com,2013-09-29 05:24:00,
2013-09-29 01:47:00,45.3,44.8,30.09,ENE,67,0.0,-999.0,98,-99.99,,,0.00,Acu-Link.com,2013-09-29 05:47:00,
2013-09-29 11:13:00,58.6,55.4,30.06,WSW,247,1.7,-999.0,89,-99.99,,,0.00,Acu-Link.com,2013-09-29 15:13:00,
2013-09-29 11:28:00,61.3,57.1,30.05,SSW,202,1.1,-999.0,86,-99.99,,,0.00,Acu-Link.com,2013-09-29 15:28:00,
2013-09-29 11:43:00,63.7,58.4,30.04,SSE,157,1.7,-999.0,83,-99.99,,,0.00,Acu-Link.com,2013-09-29 15:43:00,
2013-09-29 11:58:00,64.8,58.5,30.04,NE,45,2.2,-999.0,80,-99.99,,,0.00,Acu-Link.com,2013-09-29 15:58:00,
2013-09-29 12:13:00,65.8,58.7,30.02,NNW,337,1.7,-999.0,78,-99.99,,,0.00,Acu-Link.com,2013-09-29 16:13:00,
2013-09-29 12:28:00,68.2,60.0,30.02,SSE,157,0.0,-999.0,75,-99.99,,,0.00,Acu-Link.com,2013-09-29 16:28:00,
2013-09-29 12:44:00,70.9,59.8,30.01,SSW,202,2.2,-999.0,68,-99.99,,,0.00,Acu-Link.com,2013-09-29 16:44:00,
2013-09-29 13:10:00,71.1,59.6,29.99,North,0,3.7,-999.0,67,-99.99,,,0.00,Acu-Link.com,2013-09-29 17:10:00,
2013-09-29 13:25:00,72.9,60.9,29.98,East,90,2.7,-999.0,66,-99.99,,,0.00,Acu-Link.com,2013-09-29 17:25:00,
2013-09-29 13:41:00,73.4,58.7,29.96,SSE,157,2.2,-999.0,60,-99.99,,,0.00,Acu-Link.com,2013-09-29 17:41:00,
2013-09-29 13:56:00,72.9,58.2,29.96,NE,45,1.7,-999.0,60,-99.99,,,0.00,Acu-Link.com,2013-09-29 17:56:00,
2013-09-29 14:11:00,74.7,59.4,29.95,South,180,3.2,-999.0,59,-99.99,,,0.00,Acu-Link.com,2013-09-29 18:11:00,
2013-09-29 14:26:00,73.0,58.3,29.94,West,270,2.2,-999.0,60,-99.99,,,0.00,Acu-Link.com,2013-09-29 18:26:00,
2013-09-29 14:41:00,74.1,58.8,29.94,ESE,112,2.2,-999.0,59,-99.99,,,0.00,Acu-Link.com,2013-09-29 18:41:00,
2013-09-29 14:56:00,72.3,57.2,29.92,ESE,112,2.2,-999.0,59,-99.99,,,0.00,Acu-Link.com,2013-09-29 18:56:00,
2013-09-29 15:11:00,72.0,56.4,29.93,SSE,157,4.2,-999.0,58,-99.99,,,0.00,Acu-Link.com,2013-09-29 19:11:00,
2013-09-29 15:26:00,72.9,58.2,29.92,SW,225,1.7,-999.0,60,-99.99,,,0.00,Acu-Link.com,2013-09-29 19:26:00,
2013-09-29 15:41:00,72.3,57.2,29.92,South,180,2.2,-999.0,59,-99.99,,,0.00,Acu-Link.com,2013-09-29 19:41:00,
2013-09-29 15:57:00,72.3,57.2,29.91,ESE,112,2.7,-999.0,59,-99.99,,,0.00,Acu-Link.com,2013-09-29 19:57:00,
2013-09-29 16:12:00,72.3,57.6,29.91,South,180,4.7,-999.0,60,-99.99,,,0.00,Acu-Link.com,2013-09-29 20:12:00,
2013-09-29 16:27:00,71.4,56.8,29.91,NE,45,1.7,-999.0,60,-99.99,,,0.00,Acu-Link.com,2013-09-29 20:27:00,
2013-09-29 16:43:00,71.1,56.5,29.90,South,180,1.7,-999.0,60,-99.99,,,0.00,Acu-Link.com,2013-09-29 20:43:00,
2013-09-29 16:58:00,69.8,56.6,29.90,East,90,0.0,-999.0,63,-99.99,,,0.00,Acu-Link.com,2013-09-29 20:58:00,
2013-09-29 17:13:00,68.7,56.0,29.91,North,0,0.0,-999.0,64,-99.99,,,0.00,Acu-Link.com,2013-09-29 21:13:00,
2013-09-29 17:28:00,68.5,56.7,29.91,WSW,247,1.1,-999.0,66,-99.99,,,0.00,Acu-Link.com,2013-09-29 21:28:00,
2013-09-29 17:43:00,68.5,56.7,29.91,SW,225,1.1,-999.0,66,-99.99,,,0.00,Acu-Link.com,2013-09-29 21:43:00,
2013-09-29 17:58:00,68.5,56.3,29.91,East,90,2.2,-999.0,65,-99.99,,,0.00,Acu-Link.com,2013-09-29 21:58:00,
2013-09-29 18:13:00,68.5,55.8,29.91,WNW,292,0.0,-999.0,64,-99.99,,,0.00,Acu-Link.com,2013-09-29 22:13:00,
2013-09-29 18:28:00,67.6,55.4,29.91,NNE,22,1.1,-999.0,65,-99.99,,,0.00,Acu-Link.com,2013-09-29 22:28:00,
2013-09-29 18:43:00,66.6,55.3,29.91,NNW,337,1.7,-999.0,67,-99.99,,,0.00,Acu-Link.com,2013-09-29 22:43:00,
2013-09-29 18:58:00,65.1,54.7,29.91,South,180,0.0,-999.0,69,-99.99,,,0.00,Acu-Link.com,2013-09-29 22:58:00,
2013-09-29 19:14:00,63.7,54.9,29.90,NE,45,0.0,-999.0,73,-99.99,,,0.00,Acu-Link.com,2013-09-29 23:14:00,
2013-09-29 19:29:00,62.4,54.4,29.91,NNE,22,0.0,-999.0,75,-99.99,,,0.00,Acu-Link.com,2013-09-29 23:29:00,
2013-09-29 19:44:00,60.8,54.2,29.91,NNW,337,1.1,-999.0,79,-99.99,,,0.00,Acu-Link.com,2013-09-29 23:44:00,
2013-09-29 19:59:00,59.4,54.2,29.91,NNE,22,1.7,-999.0,83,-99.99,,,0.00,Acu-Link.com,2013-09-29 23:59:00,
2013-09-29 20:14:00,58.5,53.4,29.91,North,0,0.0,-999.0,83,-99.99,,,0.00,Acu-Link.com,2013-09-30 00:14:00,
2013-09-29 20:29:00,57.6,53.4,29.91,NNW,337,0.0,-999.0,86,-99.99,,,0.00,Acu-Link.com,2013-09-30 00:29:00,
2013-09-29 20:45:00,57.0,53.2,29.92,NE,45,0.0,-999.0,87,-99.99,,,0.00,Acu-Link.com,2013-09-30 00:45:00,
2013-09-29 21:00:00,55.8,52.6,29.92,ESE,112,0.0,-999.0,89,-99.99,,,0.00,Acu-Link.com,2013-09-30 01:00:00,
2013-09-29 21:15:00,54.5,52.2,29.92,West,270,0.0,-999.0,92,-99.99,,,0.00,Acu-Link.com,2013-09-30 01:15:00,
2013-09-29 21:30:00,53.1,51.4,29.92,ESE,112,0.0,-999.0,94,-99.99,,,0.00,Acu-Link.com,2013-09-30 01:30:00,
2013-09-29 21:45:00,52.5,52.0,29.92,SSW,202,0.0,-999.0,98,-99.99,,,0.00,Acu-Link.com,2013-09-30 01:45:00,
2013-09-29 22:00:00,51.6,51.1,29.93,SSW,202,0.0,-999.0,98,-99.99,,,0.00,Acu-Link.com,2013-09-30 02:00:00,
2013-09-29 22:15:00,51.1,50.6,29.93,WSW,247,0.0,-999.0,98,-99.99,,,0.00,Acu-Link.com,2013-09-30 02:15:00,
2013-09-29 22:30:00,50.2,49.7,29.93,SW,225,0.0,-999.0,98,-99.99,,,0.00,Acu-Link.com,2013-09-30 02:30:00,
2013-09-29 22:45:00,49.6,49.1,29.93,WSW,247,0.0,-999.0,98,-99.99,,,0.00,Acu-Link.com,2013-09-30 02:45:00,
2013-09-29 23:01:00,48.9,48.4,29.93,ESE,112,0.0,-999.0,98,-99.99,,,0.00,Acu-Link.com,2013-09-30 03:01:00,
2013-09-29 23:16:00,48.6,48.1,29.93,South,180,0.0,-999.0,98,-99.99,,,0.00,Acu-Link.com,2013-09-30 03:16:00,
2013-09-29 23:31:00,48.6,48.1,29.94,WSW,247,0.0,-999.0,98,-99.99,,,0.00,Acu-Link.com,2013-09-30 03:31:00,
2013-09-29 23:46:00,48.2,47.7,29.94,West,270,0.0,-999.0,98,-99.99,,,0.00,Acu-Link.com,2013-09-30 03:46:00,